RH
38 41 48 51 46 47 49 44 39 36 34 28 23 23 20 15 13 9 6 6 6 8 9 7 7 10 11 11 13 13 14 17 19 19 20 18 19 19 19 20 22 24
33 40 50 54 49 50 54 52 47 41 38 33 29 29 23 17 16 13 9 6 5 7 8 8 7 7 7 6 7 8 11 14 14 16 18 17 19 20 20 20 20 21
35 40 47 54 53 53 56 57 52 46 42 38 39 41 34 25 20 16 12 9 6 5 6 9 9 7 6 6 6 6 6 8 9 12 17 16 16 17 19 19 18 18
36 41 45 51 56 57 60 60 56 50 47 43 43 43 39 34 30 25 19 13 10 8 5 7 9 7 6 6 9 11 8 7 8 9 15 18 16 14 15 16 18 19
26 33 40 48 55 57 58 61 58 52 49 46 44 40 36 37 37 36 33 23 15 11 8 8 9 7 7 7 10 16 12 9 11 8 9 14 14 12 11 12 14 16
15 21 28 38 46 50 54 59 57 51 48 47 44 40 38 40 39 39 43 39 27 18 12 12 13 9 8 7 9 15 15 11 13 11 9 11 10 8 8 9 9 10
11 13 16 22 28 33 40 48 49 44 44 46 45 41 39 42 42 39 44 46 40 32 22 16 17 16 14 12 11 15 16 14 13 14 13 15 15 13 10 8 7 8
12 11 11 14 16 20 24 30 34 33 33 40 46 45 39 40 43 41 41 41 40 39 33 23 19 20 23 21 17 16 17 15 15 14 14 16 18 18 14 8 6 8
16 13 10 11 12 14 16 17 21 23 24 28 37 43 43 44 47 45 42 41 40 39 39 34 25 20 22 24 22 20 19 20 21 17 14 13 16 18 16 11 8 7
18 19 15 12 11 11 13 14 14 16 18 19 25 35 41 42 46 47 43 42 43 40 40 41 33 23 20 23 28 26 21 24 30 27 20 16 17 18 17 13 10 8
14 19 18 14 11 10 11 12 12 13 14 14 17 24 30 31 35 41 43 45 49 49 46 44 39 29 22 24 32 32 22 18 25 28 26 21 19 20 20 17 12 10
13 24 30 22 15 14 13 12 11 11 11 12 13 16 19 21 23 29 35 40 48 54 54 50 47 41 32 29 31 32 26 18 16 19 24 24 20 17 17 16 14 11
24 52 70 52 26 18 17 15 15 13 10 11 13 15 17 19 22 25 27 27 33 44 52 53 52 48 39 34 32 30 27 22 17 16 18 22 22 19 16 15 13 11
41 66 79 60 34 22 18 15 15 14 12 11 12 16 19 20 21 23 26 25 23 29 38 43 48 49 42 35 35 34 32 29 24 20 17 18 18 15 14 12 11 9
62 60 55 49 44 41 34 25 19 14 11 11 10 14 19 19 17 16 18 21 22 24 28 32 38 46 43 36 33 34 36 36 32 27 26 24 20 19 17 11 9 9
85 67 52 53 58 58 52 41 31 22 16 15 11 10 13 14 13 13 12 13 17 22 24 24 28 38 42 39 35 31 33 36 35 37 43 44 43 44 38 26 21 19
97 81 68 70 72 68 57 45 39 33 26 23 17 13 14 12 10 14 17 16 16 19 23 21 20 26 32 36 38 35 32 31 32 41 53 59 62 65 60 49 44 37
97 88 77 76 77 69 54 42 42 43 40 38 34 25 20 16 13 14 18 19 18 19 22 20 16 18 23 30 37 38 36 35 37 45 52 53 56 63 67 64 57 50
93 89 81 78 77 69 55 43 42 46 51 59 60 48 30 19 14 11 12 20 24 24 24 26 26 24 19 18 23 29 33 36 42 55 62 56 53 59 65 63 56 52
92 89 87 88 84 77 69 59 48 44 49 59 66 63 49 35 26 21 22 26 26 22 21 26 30 30 26 21 19 19 25 30 37 52 63 60 56 61 64 62 60 58
97 94 94 95 91 85 80 70 55 46 45 48 55 59 58 52 47 48 52 51 45 40 36 35 38 47 53 49 32 16 14 20 26 36 48 52 53 59 66 66 64 68
98 97 93 91 88 84 80 73 67 64 61 55 54 57 57 53 52 57 65 71 73 76 75 72 72 75 75 65 45 28 23 25 25 22 22 25 27 34 45 47 47 57
98 95 90 88 88 88 88 87 88 90 87 75 67 65 62 57 53 55 63 71 76 81 86 89 90 88 84 76 65 61 65 69 65 49 30 24 30 39 47 50 54 64
87 86 86 90 92 92 94 97 98 99 100 94 84 74 68 63 56 56 69 79 79 80 85 89 91 91 89 88 85 84 89 96 98 89 77 73 79 83 85 85 86 92
75 80 84 84 79 79 85 91 95 98 101 100 95 84 74 68 63 68 84 93 88 83 86 91 95 95 91 92 93 91 93 97 100 99 98 99 100 99 98 98 97 96
78 82 79 70 60 59 64 68 74 83 89 91 93 89 80 74 76 84 95 97 90 85 88 92 97 99 97 95 93 91 91 96 99 99 99 100 101 100 99 98 98 98
Wind_Speed
11 10 10 10 10 10 9 8 8 8 8 7 6 6 5 5 4 4 5 5 5 5 5 5 5 6 6 6 6 6 6 7 8 8 7 7 8 7 6 5 5 5
12 11 10 10 10 10 10 9 8 8 8 7 7 6 6 6 6 5 5 5 5 5 5 4 5 5 6 6 6 5 6 6 7 7 7 7 7 7 6 6 5 5
13 12 11 11 10 10 10 10 9 9 8 8 7 7 6 6 6 6 6 6 6 6 5 5 5 5 5 6 6 5 5 5 5 6 7 7 6 6 6 6 5 5
14 14 13 12 11 11 11 10 9 9 9 9 8 7 7 6 6 6 6 6 6 7 7 6 6 6 6 6 6 5 5 5 5 5 6 6 6 7 6 5 5 5
15 15 15 14 13 12 11 10 9 10 10 10 9 8 8 7 7 7 7 7 7 7 8 8 7 7 7 7 6 6 6 5 5 5 5 5 5 6 6 6 5 5
15 16 16 16 15 14 13 11 11 11 11 10 10 9 9 9 8 8 8 8 8 8 8 8 9 9 9 9 8 7 7 6 5 5 4 5 5 5 6 6 5 5
17 17 17 17 17 16 15 14 13 13 12 11 11 11 11 10 9 9 9 10 10 9 9 9 10 10 10 10 10 9 8 7 6 5 5 4 4 5 5 5 5 5
18 18 18 18 17 17 17 16 15 14 13 13 13 13 12 11 11 11 11 11 11 10 10 10 11 12 12 11 11 11 10 9 8 7 6 6 6 5 5 5 5 5
18 19 19 19 18 18 18 17 16 15 15 15 16 15 13 13 12 13 13 12 12 11 11 11 11 12 12 12 11 11 11 10 9 8 8 8 8 7 7 6 5 5
19 19 20 20 19 19 19 18 17 16 16 17 17 16 15 15 14 15 14 14 13 12 12 12 12 12 12 12 12 11 11 11 10 9 9 10 10 9 9 7 7 6
20 19 20 21 21 20 20 19 18 18 18 18 17 17 17 17 17 16 15 14 14 14 13 13 13 12 12 12 12 12 12 11 11 11 10 10 11 11 10 9 8 8
19 19 20 21 21 21 21 20 20 20 19 18 18 18 18 19 19 18 17 16 16 16 15 14 14 13 13 13 13 12 12 12 12 12 11 11 11 11 11 10 9 9
20 20 21 21 21 22 22 22 21 21 20 20 20 20 20 20 20 20 19 18 18 18 17 16 15 15 14 14 14 14 13 12 13 13 13 12 12 12 12 11 11 10
23 24 24 23 21 22 23 23 23 23 23 23 23 23 22 22 21 21 20 20 20 20 19 17 17 17 17 17 16 16 15 14 14 14 14 14 14 14 13 13 13 13
24 24 24 24 23 22 22 22 22 23 24 24 24 24 24 23 23 22 22 22 22 22 21 19 19 19 18 18 18 17 17 16 16 15 15 15 15 15 14 15 15 15
24 23 24 25 25 23 21 21 21 22 23 23 24 24 24 23 23 23 23 22 22 22 23 22 21 21 21 20 19 19 19 18 18 16 15 15 15 15 16 16 16 15
26 25 25 26 26 23 21 20 21 21 22 23 23 23 23 23 23 23 24 24 23 23 24 24 24 24 23 21 21 21 21 21 19 17 16 17 17 17 18 18 17 16
29 27 26 28 28 25 22 21 21 21 21 22 22 22 22 23 23 23 24 24 24 24 24 24 25 25 24 23 22 23 23 22 20 18 19 20 20 19 20 20 19 18
31 29 28 30 30 28 24 22 22 22 22 22 22 21 21 23 23 24 24 24 24 24 24 25 25 25 24 25 25 25 24 23 22 22 22 21 21 22 22 22 21 21
30 29 29 30 30 28 27 26 26 25 24 24 23 22 21 21 22 23 23 23 23 24 25 26 26 25 25 25 25 26 25 25 25 26 25 23 23 23 24 24 24 25
27 27 28 28 28 28 30 30 29 27 27 26 25 24 23 22 22 22 22 22 23 23 24 25 25 25 25 25 25 26 26 26 27 27 27 26 25 25 26 27 27 27
27 27 27 27 28 29 30 31 30 29 30 29 28 26 26 24 24 24 24 23 23 23 24 25 26 26 27 26 25 24 24 25 26 28 28 28 28 28 29 29 28 29
24 24 24 24 24 25 26 29 31 30 30 31 30 29 28 27 27 27 26 26 26 27 28 29 29 29 29 29 26 23 23 25 26 26 27 28 29 29 30 30 30 30
21 21 20 20 20 20 20 21 24 26 28 29 29 30 31 30 30 30 28 26 27 30 31 32 34 33 32 31 29 26 26 27 27 26 26 28 28 28 28 29 30 31
17 17 17 16 16 17 17 17 17 20 22 24 26 28 30 31 30 30 27 24 25 28 30 31 35 37 35 33 33 31 30 30 29 28 29 30 30 31 31 30 31 33
14 15 16 15 14 14 16 17 17 17 18 19 22 24 27 28 28 27 26 24 23 24 26 27 30 34 35 35 35 35 34 33 31 32 33 35 35 36 36 35 35 36
Wind_Direction
190 190 182 179 180 179 181 182 183 183 178 171 169 175 180 183 188 192 188 180 175 177 179 180 183 183 183 180 180 181 178 175 168 162 163 160 156 157 160 165 162 152
196 196 192 190 190 188 185 186 190 192 185 178 180 189 192 189 192 201 205 199 188 186 189 189 193 195 193 193 194 196 194 187 176 172 176 172 168 169 173 181 181 168
202 201 200 199 197 195 194 191 194 200 196 190 191 198 203 194 192 202 210 212 206 198 197 197 201 207 206 203 201 200 199 196 189 186 187 182 178 180 184 190 194 192
209 207 206 207 205 204 204 197 196 205 206 201 199 205 214 206 198 204 212 217 216 211 208 208 209 213 216 214 211 209 204 202 203 202 197 191 189 193 195 195 196 198
219 217 214 212 211 212 215 210 206 212 213 209 206 210 219 218 211 212 215 218 221 220 216 213 214 216 219 223 224 220 216 214 213 211 210 208 203 202 203 200 197 200
226 224 221 219 217 217 220 220 219 221 220 216 215 217 220 220 219 220 220 219 221 223 220 217 218 221 221 226 229 228 225 226 226 221 221 226 224 219 217 212 209 209
230 229 228 226 223 222 223 223 223 225 225 223 222 223 223 221 221 224 226 225 225 224 223 220 221 224 225 227 231 233 232 230 231 230 229 233 240 244 242 236 231 227
231 232 232 231 229 226 226 226 226 227 228 227 226 225 226 224 224 226 228 230 230 228 227 224 223 225 228 230 233 236 237 233 232 232 234 237 244 250 252 250 252 252
230 233 233 233 232 231 231 230 229 230 230 230 227 226 227 226 226 227 227 229 231 231 230 229 228 228 228 232 236 238 240 240 238 237 239 242 245 246 247 248 251 257
226 231 233 233 233 232 233 234 233 233 233 233 232 230 229 229 229 229 228 229 231 233 233 233 235 235 231 231 234 237 241 245 247 247 246 249 251 251 251 248 245 246
224 228 231 233 235 233 233 234 235 235 233 234 234 234 233 233 234 234 233 233 233 234 236 238 239 238 235 233 235 238 241 244 248 250 252 256 258 258 259 256 251 246
223 228 233 235 234 234 232 232 234 236 237 236 237 239 239 238 237 235 234 235 236 236 236 238 240 241 239 238 239 240 241 243 247 249 251 255 258 261 262 263 263 261
215 214 225 233 235 234 232 230 230 233 236 238 237 237 237 238 237 236 235 237 239 240 239 239 242 243 243 243 243 242 242 241 244 247 249 251 255 258 260 264 267 268
210 205 213 228 235 236 235 232 230 231 232 235 236 234 232 231 233 233 233 233 236 239 239 240 244 247 247 246 245 245 244 243 243 245 247 250 253 256 259 260 260 259
210 208 216 225 228 232 235 236 235 235 235 235 236 235 234 234 234 234 233 231 232 234 235 235 239 244 247 248 248 248 249 250 249 250 253 257 260 261 259 256 255 256
215 218 222 225 224 225 231 236 239 240 240 240 239 239 239 239 239 240 240 237 235 235 236 235 234 237 240 243 246 248 249 250 250 251 255 260 263 264 262 260 259 260
226 224 223 225 225 227 231 235 239 241 241 241 241 242 242 241 241 242 242 240 238 236 237 237 236 236 237 239 242 246 247 248 249 249 251 253 255 257 260 263 263 264
228 226 225 226 227 230 234 236 239 240 240 240 240 240 241 241 240 241 241 241 240 238 237 237 239 240 241 241 243 246 248 250 250 250 249 249 251 251 253 256 261 265
228 230 229 228 229 233 237 240 241 241 242 242 242 241 239 239 238 238 240 241 241 241 240 240 242 244 245 245 245 246 249 251 252 250 247 247 249 251 253 255 258 260
229 234 232 230 233 237 240 242 243 243 244 245 246 244 242 240 238 238 239 239 241 241 240 241 242 244 246 248 250 250 249 250 252 252 251 249 249 251 253 256 258 258
227 230 229 231 236 239 240 241 242 244 246 246 247 247 246 244 241 240 240 240 240 241 241 242 242 242 244 248 251 252 252 251 251 251 252 251 251 251 252 254 258 260
227 229 230 234 238 241 242 242 243 245 246 246 247 248 249 247 246 245 244 244 245 246 248 248 247 246 247 248 249 249 251 253 253 252 252 252 253 254 255 256 258 261
220 224 229 233 237 240 242 242 240 240 242 243 243 246 249 249 248 249 249 249 250 251 253 253 252 250 250 251 250 248 247 252 254 254 252 253 255 256 258 261 262 263
215 218 225 232 236 240 245 246 240 236 239 241 243 245 248 250 251 253 255 254 252 252 254 255 254 252 249 250 250 249 249 253 256 254 254 256 259 261 263 266 268 270
220 223 230 236 239 243 250 252 244 238 239 242 244 247 250 251 253 254 257 258 256 255 258 258 255 250 247 247 248 248 251 255 258 259 261 263 265 266 267 268 269 269
229 236 241 243 246 252 256 257 254 250 246 244 245 247 250 252 253 254 257 260 258 258 260 261 257 251 247 246 247 249 251 254 256 260 264 267 267 269 270 269 267 267